Moose Lake, MN

5:10 PM CDT on October 22, 2019 (GMT -0500)
Moose Lake-Carlton County

Weather History for KMZH - September, 2019

Change the Weather History Date:

Tuesday, September 17, 2019

  Actual Average Record
Temperature  
Mean Temperature 66 °F -  
Max Temperature 80 °F 67 °F 88 °F (1948)
Min Temperature 53 °F 44 °F 22 °F (1959)
Cooling Degree Days 2    
Growing Degree Days 16 (Base 50)    
Moisture  
Dew Point 62 °F    
Average Humidity 82    
Maximum Humidity 94    
Minimum Humidity 65    
Precipitation  
Precipitation 0.04 in - - ()
Sea Level Pressure  
Sea Level Pressure 29.93 in    
Wind  
Wind Speed 3 mph (SSE)    
Max Wind Speed 10 mph    
Max Gust Speed 17 mph    
Visibility 10 miles    
Events Rain , Thunderstorm    
Averages and records for this station are not official NWS values.
T = Trace of Precipitation, MM = Missing Value Source: NWS Daily Summary

Daily Weather History Graph

Daily Weather History Graph

Search for Another Location

Airport or City:

Astronomy

Sep. 17, 2019 Rise Set
Actual Time 6:51 AM CDT 7:19 PM CDT
Civil Twilight 6:21 AM CDT 7:49 PM CDT
Nautical Twilight 5:45 AM CDT 8:24 PM CDT
Astronomical Twilight 5:08 AM CDT 9:01 PM CDT
Moon 9:11 PM CDT (9/17) 10:05 AM CDT (9/17)
Length of Visible Light 13h 28m
Length of Day
12h 27m
Waning Gibbous, 89% of the Moon is Illuminated
Sep 17
Waning Gibbous
Sep 21
Last Quarter
Sep 28
New
Oct 5
First Quarter
Oct 13
Full

Hourly Weather History & Observations

Time (CDT) Temp. Heat Index Dew Point Humidity Pressure Visibility Wind Dir Wind Speed Gust Speed Precip Events Conditions
12:15 AM 53.6 °F - 51.8 °F 94% 29.98 in 10.0 mi Calm Calm - N/A   Clear
12:16 AM 53.6 °F - 51.8 °F 94% 29.98 in 10.0 mi Calm Calm - N/A   Clear
12:35 AM 53.6 °F - 51.8 °F 94% 29.98 in 10.0 mi NNE 3.5 mph - N/A   Clear
12:58 AM 53.6 °F - 51.8 °F 94% 29.98 in 10.0 mi NNE 3.5 mph - N/A   Clear
1:17 AM 53.6 °F - 51.8 °F 94% 29.98 in 10.0 mi NE 3.5 mph - N/A   Clear
1:36 AM 53.6 °F - 51.8 °F 94% 29.98 in 10.0 mi NE 3.5 mph - N/A   Clear
1:55 AM 53.6 °F - 51.8 °F 94% 29.98 in 10.0 mi Calm Calm - N/A   Clear
1:56 AM 53.6 °F - 51.8 °F 94% 29.98 in 10.0 mi NE 3.5 mph - N/A   Clear
2:15 AM 53.6 °F - 51.8 °F 94% 29.98 in 10.0 mi NE 3.5 mph - N/A   Clear
2:19 AM 53.6 °F - 51.8 °F 94% 29.98 in 10.0 mi NE 3.5 mph - N/A   Clear
2:37 AM 53.6 °F - 51.8 °F 94% 29.98 in 10.0 mi NNE 3.5 mph - N/A   Clear
2:55 AM 53.6 °F - 51.8 °F 94% 29.98 in 10.0 mi Calm Calm - N/A   Clear
3:15 AM 53.6 °F - 51.8 °F 94% 29.98 in 10.0 mi Calm Calm - N/A   Scattered Clouds
3:16 AM 53.6 °F - 51.8 °F 94% 29.98 in 10.0 mi Calm Calm - N/A   Scattered Clouds
3:35 AM 53.6 °F - 51.8 °F 94% 29.98 in 10.0 mi Calm Calm - N/A   Scattered Clouds
3:36 AM 53.6 °F - 51.8 °F 94% 29.98 in 10.0 mi Calm Calm - N/A   Clear
3:58 AM 53.6 °F - 51.8 °F 94% 29.98 in 10.0 mi Calm Calm - N/A   Clear
4:17 AM 53.6 °F - 51.8 °F 94% 29.98 in 10.0 mi NE 3.5 mph - N/A   Clear
4:36 AM 53.6 °F - 51.8 °F 94% 29.98 in 10.0 mi Calm Calm - N/A   Clear
4:55 AM 53.6 °F - 51.8 °F 94% 29.98 in 10.0 mi Calm Calm - N/A   Clear
4:56 AM 53.6 °F - 51.8 °F 94% 29.98 in 10.0 mi Calm Calm - N/A   Clear
5:15 AM 55.4 °F - 51.8 °F 88% 29.98 in 10.0 mi Calm Calm - N/A   Clear
5:37 AM 53.6 °F - 51.8 °F 94% 29.98 in 10.0 mi Calm Calm - N/A   Clear
5:55 AM 55.4 °F - 53.6 °F 94% 29.99 in 10.0 mi Calm Calm - N/A   Clear
6:15 AM 55.4 °F - 53.6 °F 94% 29.99 in 10.0 mi Calm Calm - N/A   Clear
6:35 AM 55.4 °F - 53.6 °F 94% 29.99 in 10.0 mi Calm Calm - N/A   Clear
6:58 AM 55.4 °F - 53.6 °F 94% 29.99 in 10.0 mi Calm Calm - N/A   Clear
7:35 AM 62.6 °F - 60.8 °F 94% 30.01 in 10.0 mi South 3.5 mph - N/A   Scattered Clouds
7:36 AM 62.6 °F - 60.8 °F 94% 30.01 in 10.0 mi South 3.5 mph - N/A   Scattered Clouds
7:56 AM 66.2 °F - 62.6 °F 88% 30.00 in 10.0 mi Calm Calm - N/A   Scattered Clouds
8:19 AM 68.0 °F - 62.6 °F 83% 30.01 in 10.0 mi Calm Calm - N/A   Overcast
8:36 AM 68.0 °F - 62.6 °F 83% 30.01 in 10.0 mi South 3.5 mph - N/A   Overcast
8:56 AM 66.2 °F - 62.6 °F 88% 30.01 in 10.0 mi Calm Calm - N/A Rain Light Rain
9:15 AM 64.4 °F - 62.6 °F 94% 30.01 in 5.0 mi Calm Calm - N/A Rain , Thunderstorm Rain
9:37 AM 64.4 °F - 62.6 °F 94% 30.03 in 4.0 mi West 3.5 mph - 0.01 in Rain , Thunderstorm Thunderstorms and Rain
9:55 AM 64.4 °F - 62.6 °F 94% 30.05 in 5.0 mi Calm Calm - 0.01 in Rain , Thunderstorm Thunderstorms and Rain
10:15 AM 64.4 °F - 62.6 °F 94% 30.05 in 2.5 mi SSW 8.1 mph - 0.02 in Rain , Thunderstorm Heavy Thunderstorms and Rain
10:39 AM 64.4 °F - 62.6 °F 94% 30.04 in 2.5 mi WSW 4.6 mph - 0.02 in Rain , Thunderstorm Heavy Thunderstorms and Rain
10:56 AM 64.4 °F - 62.6 °F 94% 30.02 in 7.0 mi Calm Calm - N/A Rain , Thunderstorm Thunderstorms and Rain
11:15 AM 64.4 °F - 62.6 °F 94% 30.02 in 5.0 mi SSE 5.8 mph - N/A Rain , Thunderstorm Thunderstorms and Rain
11:16 AM 64.4 °F - 62.6 °F 94% 30.02 in 5.0 mi SE 6.9 mph - N/A Rain , Thunderstorm Thunderstorms and Rain
11:35 AM 64.4 °F - 62.6 °F 94% 29.96 in 3.0 mi ESE 4.6 mph - N/A Rain , Thunderstorm Thunderstorms and Rain
11:58 AM 66.2 °F - 62.6 °F 88% 29.95 in 10.0 mi SE 4.6 mph - N/A Rain , Thunderstorm Light Thunderstorms and Rain
12:16 PM 66.2 °F - 62.6 °F 88% 29.94 in 10.0 mi SSE 4.6 mph - N/A Thunderstorm Overcast
12:35 PM 68.0 °F - 62.6 °F 83% 29.93 in 10.0 mi Calm Calm - N/A Thunderstorm Overcast
12:55 PM 68.0 °F - 64.4 °F 88% 29.93 in 10.0 mi Calm Calm - N/A Thunderstorm Overcast
12:56 PM 68.0 °F - 64.4 °F 88% 29.93 in 10.0 mi SSE 3.5 mph - N/A Thunderstorm Overcast
1:19 PM 69.8 °F - 64.4 °F 83% 29.92 in 10.0 mi SSE 3.5 mph - N/A   Mostly Cloudy
1:37 PM 71.6 °F - 64.4 °F 78% 29.92 in 10.0 mi SE 4.6 mph - N/A   Scattered Clouds
1:55 PM 73.4 °F - 64.4 °F 73% 29.91 in 10.0 mi SSE 8.1 mph - N/A   Scattered Clouds
1:56 PM 73.4 °F - 64.4 °F 73% 29.91 in 10.0 mi SSE 6.9 mph - N/A   Scattered Clouds
2:15 PM 75.2 °F - 64.4 °F 69% 29.90 in 10.0 mi SE 4.6 mph - N/A   Scattered Clouds
2:16 PM 75.2 °F - 64.4 °F 69% 29.90 in 10.0 mi SSE 6.9 mph - N/A   Scattered Clouds
2:39 PM 77.0 °F - 66.2 °F 69% 29.89 in 10.0 mi SSE 5.8 mph - N/A   Clear
2:56 PM 77.0 °F - 66.2 °F 69% 29.88 in 10.0 mi SSE 8.1 mph - N/A   Clear
3:15 PM 77.0 °F - 66.2 °F 69% 29.88 in 10.0 mi SSE 5.8 mph - N/A   Clear
3:35 PM 78.8 °F - 68.0 °F 69% 29.87 in 10.0 mi South 5.8 mph - N/A   Clear
3:36 PM 78.8 °F - 68.0 °F 69% 29.87 in 10.0 mi South 4.6 mph - N/A   Clear
3:55 PM 80.6 °F 83.2 °F 68.0 °F 65% 29.86 in 10.0 mi South 6.9 mph - N/A   Clear
4:16 PM 78.8 °F - 68.0 °F 69% 29.86 in 10.0 mi South 6.9 mph - N/A   Clear
4:35 PM 80.6 °F 83.2 °F 68.0 °F 65% 29.86 in 10.0 mi South 10.4 mph 16.1 mph N/A   Clear
4:36 PM 80.6 °F 83.2 °F 68.0 °F 65% 29.86 in 10.0 mi South 10.4 mph 16.1 mph N/A   Clear
4:55 PM 80.6 °F 83.2 °F 68.0 °F 65% 29.85 in 10.0 mi South 10.4 mph - N/A   Clear
4:56 PM 80.6 °F 83.2 °F 68.0 °F 65% 29.85 in 10.0 mi South 9.2 mph - N/A   Clear
5:15 PM 80.6 °F 83.2 °F 68.0 °F 65% 29.85 in 10.0 mi South 6.9 mph - N/A   Clear
5:19 PM 80.6 °F 83.2 °F 68.0 °F 65% 29.85 in 10.0 mi South 4.6 mph - N/A   Clear
5:38 PM 80.6 °F 83.2 °F 68.0 °F 65% 29.86 in 10.0 mi South 6.9 mph - N/A   Clear
5:55 PM 80.6 °F 83.2 °F 68.0 °F 65% 29.85 in 10.0 mi South 6.9 mph - N/A   Clear
6:15 PM 78.8 °F - 68.0 °F 69% 29.86 in 10.0 mi South 5.8 mph - N/A   Clear
6:16 PM 78.8 °F - 68.0 °F 69% 29.86 in 10.0 mi South 4.6 mph - N/A   Clear
6:35 PM 78.8 °F - 68.0 °F 69% 29.86 in 10.0 mi South 5.8 mph - N/A   Clear
6:36 PM 78.8 °F - 68.0 °F 69% 29.86 in 10.0 mi South 5.8 mph - N/A   Clear
6:58 PM 77.0 °F - 68.0 °F 74% 29.86 in 10.0 mi South 3.5 mph - N/A   Clear
7:16 PM 77.0 °F - 68.0 °F 74% 29.86 in 10.0 mi South 6.9 mph - N/A   Clear
7:36 PM 75.2 °F - 68.0 °F 78% 29.86 in 10.0 mi South 3.5 mph - N/A   Clear
7:55 PM 75.2 °F - 66.2 °F 73% 29.86 in 10.0 mi South 4.6 mph - N/A   Clear
7:56 PM 75.2 °F - 66.2 °F 73% 29.86 in 10.0 mi South 5.8 mph - N/A   Clear
8:15 PM 77.0 °F - 66.2 °F 69% 29.86 in 10.0 mi South 6.9 mph - N/A   Clear
8:20 PM 77.0 °F - 66.2 °F 69% 29.86 in 10.0 mi South 6.9 mph - N/A   Clear
8:38 PM 75.2 °F - 66.2 °F 73% 29.86 in 10.0 mi South 6.9 mph - N/A   Clear
8:55 PM 75.2 °F - 66.2 °F 73% 29.87 in 10.0 mi South 4.6 mph - N/A   Clear
9:16 PM 73.4 °F - 66.2 °F 78% 29.86 in 10.0 mi South 8.1 mph - N/A   Clear
9:35 PM 73.4 °F - 66.2 °F 78% 29.86 in 10.0 mi South 4.6 mph - N/A   Clear
9:36 PM 73.4 °F - 66.2 °F 78% 29.86 in 10.0 mi South 6.9 mph - N/A   Clear
9:59 PM 73.4 °F - 66.2 °F 78% 29.86 in 10.0 mi South 8.1 mph - N/A   Clear
10:17 PM 73.4 °F - 66.2 °F 78% 29.87 in 10.0 mi South 8.1 mph 17.3 mph 0.01 in   Clear
10:36 PM 73.4 °F - 66.2 °F 78% 29.87 in 10.0 mi South 8.1 mph - 0.01 in   Clear
10:55 PM 73.4 °F - 66.2 °F 78% 29.87 in 10.0 mi South 10.4 mph 16.1 mph 0.01 in   Clear
10:56 PM 73.4 °F - 68.0 °F 83% 29.87 in 10.0 mi South 9.2 mph 16.1 mph N/A   Clear
11:15 PM 73.4 °F - 66.2 °F 78% 29.87 in 10.0 mi SSW 6.9 mph - N/A   Clear
11:20 PM 73.4 °F - 66.2 °F 78% 29.87 in 10.0 mi SSW 5.8 mph - N/A   Clear
11:37 PM 71.6 °F - 66.2 °F 83% 29.87 in 10.0 mi SSW 6.9 mph - N/A   Clear
11:55 PM 71.6 °F - 66.2 °F 83% 29.87 in 10.0 mi South 5.8 mph - N/A   Clear